Theta_e
361 360 364 363 363 365 363 366 364 366 368 360 363 364 363 364 365 363 364 364 362 358 360 359 356 357 355 361 363 364 362 364 364 365 361 363 362 362 365 364 362 362 361 361 359 359 358 358 358 359 359 359 359 359 358 358 357 356 356 356 355 356 355 355 355 355 355 354 355 355 355 355 354 354 354 355 354 354 353 353 354 355 355 354 354
363 367 366 367 366 365 363 364 363 366 362 365 365 365 364 367 361 361 360 363 362 361 362 355 350 348 355 352 359 363 363 360 361 357 359 358 363 361 366 365 363 362 362 361 360 359 360 359 360 359 358 359 360 359 359 358 357 357 356 354 353 356 355 354 353 353 355 355 355 355 355 355 355 354 354 354 354 354 354 353 353 353 354 354 354
365 369 369 369 367 367 366 364 364 364 365 363 367 364 364 361 363 365 363 362 362 365 360 356 353 349 356 353 352 362 357 360 359 357 357 355 358 362 362 365 365 364 362 362 361 360 360 360 359 359 359 359 359 359 359 359 357 356 354 353 348 348 349 352 353 355 354 355 355 355 356 355 355 355 355 354 354 355 355 355 355 354 354 354 354
366 367 367 367 368 366 364 364 363 363 366 363 367 364 363 365 366 366 362 361 359 361 360 353 350 348 352 351 352 350 355 357 355 354 356 357 360 362 361 362 365 364 364 362 362 361 360 360 360 359 359 358 358 357 357 356 354 353 352 350 350 351 348 348 350 353 355 355 355 355 356 356 356 355 355 355 355 355 355 355 355 355 354 354 354
374 370 369 367 366 367 365 364 366 365 365 364 366 368 367 365 363 364 361 360 360 355 355 354 349 345 344 342 342 349 350 354 358 361 354 356 361 363 362 362 361 365 363 363 362 362 361 360 360 360 360 360 359 357 355 353 353 350 351 353 352 352 352 351 351 352 353 354 355 355 355 356 356 356 356 356 356 355 356 356 355 355 355 354 355
371 372 370 367 366 367 365 363 365 364 366 367 365 365 366 366 362 362 358 360 352 356 358 354 352 346 348 348 350 352 352 355 351 352 358 356 358 360 361 362 361 361 362 363 363 362 362 361 360 360 360 359 359 357 354 351 351 351 353 354 353 353 353 353 352 352 352 353 354 354 356 356 356 356 356 356 356 356 356 356 356 356 356 355 355
372 371 368 367 363 366 366 364 366 368 364 363 363 365 365 363 362 357 355 357 352 349 347 352 346 346 352 356 352 352 355 348 354 351 358 362 368 357 357 361 364 360 361 361 363 363 363 362 361 361 360 359 358 358 352 351 350 351 353 354 354 354 354 353 353 352 352 352 352 353 354 355 356 356 356 356 356 356 356 356 357 357 357 356 356
372 373 371 369 366 365 365 365 364 367 366 364 365 361 361 360 361 359 355 350 352 343 350 349 346 348 350 348 347 355 358 352 350 353 351 363 362 362 362 360 360 363 361 362 361 361 363 362 362 361 360 359 358 358 354 349 349 350 351 353 353 353 353 354 354 354 353 352 352 352 353 354 355 356 356 356 356 356 356 356 357 357 357 357 357
372 373 373 369 367 364 361 364 365 365 367 366 361 361 362 352 359 364 360 353 344 336 343 354 348 346 351 344 350 349 351 356 350 350 355 355 355 360 358 363 359 362 364 364 364 364 363 363 363 362 360 358 358 356 356 353 351 351 353 353 353 352 354 354 352 352 354 354 354 353 354 354 355 356 357 356 356 356 357 356 357 357 357 357 357
372 373 374 370 368 366 361 366 365 369 363 362 360 358 357 357 356 358 354 353 350 345 345 346 349 347 349 342 355 349 347 351 352 356 350 351 355 357 359 367 365 358 359 358 361 362 361 362 362 361 358 356 355 356 354 353 353 352 352 352 354 353 354 354 353 353 354 355 355 354 354 355 354 355 356 356 355 355 355 355 356 356 357 357 357
370 374 372 373 366 367 365 364 364 363 361 357 358 360 357 356 354 351 358 356 356 351 351 351 349 349 345 346 349 355 355 355 357 356 355 345 350 356 352 360 361 364 357 357 359 359 360 362 360 360 359 356 355 355 352 352 352 351 352 353 352 352 355 356 356 355 355 355 355 355 355 354 354 354 355 356 356 356 356 355 355 356 356 355 356
371 372 373 367 365 365 364 362 359 364 366 354 353 354 351 352 354 345 349 355 354 355 353 352 351 350 350 352 355 356 358 356 355 355 356 355 352 356 350 356 351 353 351 355 356 360 360 359 360 358 359 355 356 353 354 353 353 353 353 353 353 354 355 355 356 355 356 356 356 355 355 354 354 354 354 355 355 355 356 356 356 356 356 356 356
372 372 369 369 371 366 362 360 361 359 365 361 353 351 355 350 352 359 353 352 349 354 352 351 351 347 349 347 352 355 353 348 352 351 343 350 349 358 358 355 352 356 353 359 355 355 356 357 357 357 358 355 355 354 353 353 352 352 352 352 352 354 354 355 355 354 355 355 355 355 354 354 354 354 353 354 354 355 355 356 356 356 356 356 356
370 370 369 367 364 363 361 360 364 358 365 359 356 352 350 349 357 357 353 353 349 345 348 350 345 346 342 345 350 348 352 351 344 347 346 341 343 346 347 350 341 343 346 360 355 348 352 354 355 354 356 356 351 352 353 354 353 352 352 351 352 352 353 354 354 354 354 355 355 354 354 354 354 354 354 354 354 354 354 354 355 355 355 356 356
371 371 366 365 364 364 361 363 361 357 359 361 358 355 358 351 354 350 351 353 351 352 351 351 342 342 346 344 342 336 347 350 345 341 341 337 344 338 338 338 339 344 354 350 345 348 349 350 353 354 355 354 352 353 352 353 353 353 351 351 351 352 353 353 353 353 354 353 353 353 353 354 353 353 353 354 354 354 354 354 354 355 355 355 356
368 368 367 365 364 362 362 362 362 359 364 356 359 355 360 360 351 356 354 342 347 348 350 351 348 343 336 337 337 336 333 337 343 343 338 337 336 336 339 337 338 344 347 339 343 351 347 349 351 354 353 352 353 352 351 352 352 350 349 348 346 346 347 349 350 351 351 352 352 352 353 352 352 352 353 353 354 354 354 353 354 356 355 356 356
367 367 365 364 364 364 364 360 359 359 360 359 357 351 351 350 352 355 350 348 341 348 350 352 349 352 345 338 336 333 331 336 331 346 337 338 334 334 340 336 335 346 346 343 354 353 345 346 350 350 349 351 351 351 351 351 350 347 344 344 342 341 341 343 345 347 348 348 348 348 348 349 351 352 353 353 353 353 352 353 353 354 354 355 356
368 366 363 362 363 364 364 359 359 357 357 354 354 359 354 354 348 349 351 354 349 346 346 352 351 354 348 347 348 335 334 338 338 334 348 341 344 335 340 331 339 345 351 342 347 357 351 345 348 349 345 345 345 342 345 345 344 341 343 342 342 340 340 340 342 343 344 345 344 345 345 345 346 347 348 350 352 353 354 354 353 353 353 354 355
363 363 363 362 362 364 363 362 360 358 355 363 364 352 348 346 351 352 353 355 352 347 348 342 355 352 347 343 343 343 344 340 334 338 335 341 344 337 330 332 335 342 345 341 338 339 342 343 339 342 345 345 343 345 343 342 340 340 340 340 339 339 338 339 340 341 342 342 341 342 343 343 344 344 345 346 348 349 350 353 354 354 354 354 354
364 365 364 361 362 362 362 359 360 353 354 354 355 350 357 351 355 354 354 355 353 350 343 343 345 344 348 345 342 347 351 346 344 338 336 331 341 339 333 332 332 331 329 332 330 334 344 345 340 339 342 343 348 343 339 343 343 341 339 339 338 338 337 337 338 340 340 340 340 340 341 342 342 342 343 344 344 346 347 348 350 352 354 354 354
367 363 363 361 362 361 360 358 358 356 353 353 352 358 354 354 355 353 352 353 356 355 350 349 343 341 346 346 351 349 351 345 343 343 341 333 333 335 336 339 336 335 333 338 331 332 336 339 341 338 343 342 341 344 342 341 342 341 341 339 338 337 336 335 337 338 337 337 339 339 340 341 342 342 343 343 343 344 344 345 347 348 351 353 354
367 364 363 362 357 358 356 354 355 350 353 351 353 352 350 350 353 354 355 352 358 357 350 354 344 350 346 344 343 348 345 345 341 340 340 344 331 330 331 336 337 338 345 332 334 335 337 336 341 331 338 345 344 345 346 344 339 342 340 340 338 337 337 336 336 336 336 335 336 337 338 340 340 341 342 342 342 343 344 344 345 346 347 349 351
360 364 362 359 359 355 351 353 354 354 357 352 356 348 347 350 354 355 354 352 350 352 352 350 355 347 347 344 343 340 341 336 337 338 337 338 335 329 328 325 332 336 343 340 343 340 338 343 341 332 350 345 351 350 347 346 340 341 342 342 341 339 338 337 337 336 336 335 336 336 336 337 339 340 340 341 341 342 342 343 343 344 345 346 347
363 358 356 353 359 355 356 355 353 355 354 355 357 357 348 348 354 354 354 354 352 352 349 348 347 348 348 345 343 343 347 343 340 346 341 338 334 331 332 336 340 336 341 345 342 340 337 337 340 342 344 339 352 348 349 348 347 343 339 342 344 342 341 340 338 337 336 336 336 336 336 337 337 337 338 338 339 340 340 340 341 342 343 344 344
361 358 354 354 356 355 354 356 353 353 354 354 356 355 357 354 351 351 351 351 353 351 350 347 349 349 345 347 344 348 349 349 348 340 348 338 339 334 331 333 332 334 342 341 338 341 341 339 339 337 342 347 346 345 348 345 346 345 344 349 343 346 344 343 342 341 339 338 337 336 336 336 337 337 337 337 337 337 338 338 339 340 341 341 342
354 356 355 353 353 355 354 355 356 355 357 355 354 357 353 357 350 350 349 352 351 351 351 348 350 347 351 347 346 350 345 348 344 345 339 339 338 333 335 335 334 331 339 340 343 337 338 337 337 346 338 340 339 345 348 343 345 345 345 342 342 343 344 342 342 341 340 339 338 336 336 337 336 337 337 337 337 337 337 337 338 338 339 339 340
356 357 360 356 354 354 353 352 354 354 355 354 353 353 353 354 353 349 350 352 351 351 351 348 346 346 348 348 347 344 350 349 344 342 341 339 339 339 336 330 329 330 334 342 340 335 332 340 338 343 344 343 345 349 350 345 345 346 344 345 343 342 341 342 341 341 340 341 339 338 337 337 336 336 337 336 336 336 337 336 337 337 337 337 337
360 357 358 358 355 353 353 351 353 353 354 354 353 351 352 349 351 351 349 349 349 348 350 348 345 348 346 348 347 342 347 346 342 349 349 348 344 348 341 336 330 325 331 331 334 334 336 334 341 348 348 353 347 349 346 344 345 346 348 341 339 339 342 342 341 340 339 339 339 338 339 338 338 338 337 337 336 337 337 337 336 336 336 336 336
358 359 356 358 356 354 351 348 352 353 353 353 352 352 351 349 349 350 347 346 350 348 349 348 349 346 347 345 346 345 347 351 350 345 347 347 347 346 343 339 335 330 327 326 329 329 335 332 335 342 343 346 348 347 346 346 346 342 341 343 342 344 339 338 340 339 339 338 338 337 337 338 337 338 337 338 337 337 337 336 336 336 336 335 336
357 356 356 355 356 356 352 350 350 350 351 350 351 351 351 348 348 349 349 349 351 349 349 349 347 348 349 347 345 345 346 347 348 348 347 347 346 344 344 343 341 333 332 327 327 333 333 338 332 342 343 343 346 346 345 343 346 344 341 341 340 340 337 337 339 339 337 337 336 334 335 335 335 336 335 335 335 336 336 336 336 335 336 336 336
360 358 356 354 354 352 353 351 350 351 351 349 350 349 349 347 346 347 348 349 349 349 348 347 347 348 347 344 347 347 349 346 345 345 345 345 345 346 345 344 342 339 335 333 326 334 337 334 340 337 340 346 341 342 344 346 347 344 343 343 344 342 341 342 338 337 336 335 334 333 332 331 332 332 332 333 334 335 335 336 336 336 336 336 336
359 358 356 353 352 350 350 348 348 349 350 349 348 349 349 348 347 345 345 347 346 347 345 347 345 346 345 344 346 346 349 348 346 346 347 346 346 346 345 343 342 341 340 335 330 329 339 336 336 341 341 337 342 339 340 342 344 345 342 341 344 344 341 339 341 338 336 334 334 333 332 331 332 332 332 332 333 336 336 336 334 334 334 335 335
357 356 355 353 351 350 348 349 348 348 349 349 349 350 349 347 349 347 347 346 344 345 346 346 345 346 347 346 346 347 348 345 346 345 344 345 345 345 346 345 342 341 339 336 331 331 336 340 339 338 341 342 335 342 341 341 342 342 342 342 342 339 337 337 338 338 336 334 333 332 332 331 332 332 332 332 333 335 336 337 334 332 333 332 332
357 355 355 354 353 351 348 349 349 349 350 350 349 349 348 347 346 346 345 346 344 343 344 343 345 346 348 345 344 345 347 345 346 343 343 341 342 340 341 340 339 339 341 335 333 331 329 336 337 342 339 344 336 342 336 337 337 339 339 341 341 339 336 335 333 334 336 334 332 330 331 330 331 331 331 331 332 332 333 333 332 331 331 330 329
358 356 354 354 353 352 349 349 349 349 350 350 348 349 347 347 345 344 343 345 344 343 342 343 343 346 344 344 343 343 344 343 344 343 343 342 342 341 340 341 339 338 340 339 335 330 329 331 338 335 337 341 339 339 342 341 339 338 337 338 336 336 337 337 336 334 334 333 331 330 329 329 330 330 330 331 331 330 329 328 328 328 327 326 326
357 357 356 354 354 352 350 349 349 349 349 348 348 348 347 347 346 344 343 343 345 343 342 342 342 343 343 343 342 341 342 342 343 344 344 343 343 344 342 341 341 340 340 341 339 333 332 329 333 334 337 336 337 339 340 340 336 335 335 336 338 336 336 337 334 333 333 332 331 330 329 329 328 328 327 328 327 326 325 324 324 325 325 324 324
358 357 356 355 354 352 350 350 348 348 349 348 347 345 347 347 346 344 344 344 343 343 343 343 345 344 343 342 342 343 344 341 341 341 342 342 342 342 341 341 340 340 339 339 338 338 334 331 331 335 337 336 337 338 339 335 336 336 336 335 333 333 335 334 334 335 334 331 331 329 328 328 328 328 327 327 327 326 325 324 324 324 324 323 323
358 356 356 354 352 350 349 349 348 347 348 348 347 345 346 346 345 344 344 345 343 344 344 344 344 345 344 345 344 345 343 342 341 342 343 342 342 341 340 341 341 340 339 338 338 338 336 333 332 331 334 333 334 336 338 337 334 333 333 335 337 338 337 335 333 334 334 334 334 336 334 332 330 328 327 327 327 326 325 324 324 323 322 321 319
358 355 354 353 351 350 349 349 349 346 346 348 347 346 345 345 345 344 343 344 344 343 344 343 343 344 344 344 344 344 343 343 342 341 342 343 342 341 342 341 340 339 338 337 337 337 335 333 332 332 330 333 333 331 337 340 338 335 331 330 330 333 335 334 333 335 334 334 334 333 333 332 331 331 325 325 326 326 326 325 324 322 321 320 318
358 356 353 352 350 350 348 348 348 346 346 347 348 347 346 345 345 345 344 343 342 342 343 344 343 342 343 343 342 343 343 344 343 343 342 341 343 341 342 342 340 339 337 337 337 335 333 332 331 331 333 332 334 335 335 335 333 333 334 331 327 328 331 335 335 333 335 334 333 334 334 333 332 331 327 326 327 327 326 326 327 327 325 321 320
358 356 355 351 349 348 348 348 346 346 346 346 347 346 345 345 344 343 344 344 342 342 341 341 342 342 342 342 341 341 344 347 342 341 341 342 342 341 342 342 341 339 337 337 336 334 334 334 331 331 330 330 331 330 329 328 328 327 333 334 330 330 331 330 332 335 335 334 334 333 332 333 332 332 332 332 334 335 334 330 329 331 328 323 321
358 356 354 351 349 347 347 347 346 345 345 346 342 335 338 345 345 344 344 343 343 343 343 342 341 343 342 341 341 348 349 349 344 338 334 334 336 340 342 343 342 340 338 336 334 334 333 331 330 330 329 327 327 329 329 330 332 334 331 330 328 331 331 329 330 332 335 333 331 329 332 335 333 331 332 331 333 334 332 332 332 333 331 327 325
357 356 353 348 347 346 346 346 345 345 346 346 334 330 333 337 343 344 343 344 344 344 344 344 343 342 341 342 342 346 347 345 343 340 335 332 331 329 329 331 337 340 337 335 334 334 332 330 331 331 328 327 328 329 328 329 330 329 329 329 329 329 327 324 322 328 336 333 331 329 329 335 333 329 330 331 331 331 330 329 330 330 327 326 325
359 356 351 348 347 346 346 346 345 345 346 337 328 328 331 332 338 344 343 343 342 343 343 343 343 343 343 342 341 343 343 342 344 344 337 332 329 328 326 325 326 326 330 333 332 331 331 329 329 328 327 326 328 330 329 328 330 331 331 331 329 328 326 324 324 323 335 337 329 327 327 331 332 329 327 328 329 330 330 329 328 328 326 325 325
360 355 351 348 346 346 346 346 344 345 345 332 326 326 328 329 332 340 343 342 341 341 342 343 343 343 343 343 342 343 344 350 346 346 346 342 330 324 325 326 326 325 324 323 325 332 332 330 328 328 329 329 328 330 333 334 336 330 330 328 328 328 327 326 326 327 330 337 331 326 323 326 328 326 325 327 329 330 330 329 327 327 326 325 325
358 354 350 348 348 348 347 347 345 346 346 328 325 324 326 326 327 333 344 343 342 342 342 341 341 343 343 343 342 342 343 343 344 344 343 343 343 341 337 335 335 335 327 322 321 320 325 329 330 329 332 333 331 333 338 339 333 329 330 329 328 326 326 325 329 329 331 332 326 324 321 323 326 326 325 326 328 329 329 328 326 326 326 324 323
354 351 348 346 347 348 347 346 345 346 347 324 322 322 322 322 323 328 341 342 341 342 340 341 346 348 347 345 344 343 345 345 346 344 343 342 342 343 344 341 340 341 339 337 337 332 330 329 328 327 330 332 332 332 337 339 336 334 334 331 331 330 329 330 328 328 327 329 328 325 319 323 326 324 324 325 327 327 328 325 324 324 323 321 321
355 352 350 347 347 347 347 345 344 347 345 320 321 320 319 319 322 336 339 339 340 338 340 347 344 342 343 342 342 343 342 343 341 336 339 345 345 344 340 338 336 335 335 335 332 333 336 339 338 335 334 334 329 334 333 330 330 331 329 327 326 326 324 322 321 324 323 327 329 326 321 321 324 322 321 324 324 322 323 325 323 322 320 320 320
354 350 349 348 348 346 346 349 347 346 339 322 318 316 317 320 324 337 340 340 341 340 346 343 345 344 343 343 339 338 338 339 338 327 329 335 339 338 334 334 336 336 336 338 329 324 323 322 320 321 322 320 317 316 315 316 324 329 330 325 322 323 320 318 319 320 321 323 324 323 320 318 321 320 319 321 322 321 321 321 323 321 320 318 318
353 351 351 349 349 348 345 347 345 346 339 323 317 315 318 318 327 338 341 341 340 341 345 345 345 345 343 342 341 339 336 341 328 324 326 334 337 338 336 336 334 334 334 336 338 335 322 320 320 320 319 320 320 319 318 316 316 321 323 319 321 323 321 320 317 318 320 322 323 325 320 318 320 322 319 319 318 319 319 319 319 319 320 317 318
356 354 350 349 349 349 347 347 345 344 340 326 316 316 315 316 327 341 342 340 341 343 344 340 336 337 338 339 340 335 336 336 321 321 322 332 336 336 335 333 331 331 333 337 337 335 334 332 332 332 330 326 329 331 331 324 320 322 323 323 324 323 321 320 319 318 317 319 323 326 319 319 315 317 316 312 310 314 318 318 319 318 318 319 320
Wind_Speed
4 5 4 3 4 4 2 1 1 1 1 2 0 1 1 2 1 2 2 1 2 1 2 3 5 3 4 1 1 2 3 1 1 1 1 3 6 9 14 14 13 13 12 11 11 11 11 11 11 11 11 11 12 12 11 11 11 11 11 11 10 9 9 8 8 8 8 8 8 9 9 9 8 8 7 7 7 8 7 7 7 7 7 6 5
3 3 4 3 2 1 3 2 3 2 4 2 1 1 2 1 0 2 3 2 1 2 3 3 5 3 2 4 1 0 1 1 0 2 5 2 1 6 15 14 14 13 13 12 11 10 11 11 11 11 12 12 12 12 12 12 12 11 11 9 10 10 9 7 8 9 9 9 10 10 9 9 9 8 8 8 8 8 8 8 8 7 7 7 6
1 2 2 2 3 2 1 1 1 1 2 3 2 1 1 2 2 2 3 3 3 2 3 3 3 5 1 2 4 0 3 2 2 2 3 4 4 4 9 14 14 14 13 13 11 10 10 10 11 12 12 12 12 13 13 12 11 10 5 4 7 11 13 9 8 11 11 11 11 11 11 11 10 10 9 9 9 9 9 9 9 9 8 8 7
2 2 2 2 2 2 3 2 2 1 2 3 2 2 3 2 2 2 1 1 5 3 2 4 5 3 2 2 2 4 3 3 3 3 3 1 6 5 5 7 12 13 12 12 12 11 10 11 11 10 10 11 11 11 10 10 8 5 3 2 2 10 14 14 12 11 11 13 12 12 12 12 12 12 11 11 11 11 10 10 10 10 9 9 9
1 2 2 2 2 3 2 3 2 3 2 4 2 2 2 3 0 1 1 4 2 3 4 2 3 4 4 4 5 3 4 3 2 1 2 3 5 2 4 5 6 10 12 12 12 11 11 11 11 11 10 10 10 9 6 5 5 3 6 9 11 12 12 12 11 10 8 7 8 12 13 13 13 13 13 13 12 12 12 11 11 10 10 10 10
2 2 3 2 2 2 3 2 1 2 2 2 2 1 1 2 1 2 2 2 4 3 2 2 2 3 2 2 2 2 2 1 3 3 1 1 5 6 3 5 5 5 6 11 11 11 11 11 11 10 10 10 9 8 2 2 3 8 11 11 13 14 13 10 11 10 9 9 9 10 11 13 14 13 13 12 12 12 12 12 11 11 11 11 11
5 5 4 3 2 2 3 2 2 1 2 0 3 1 2 1 2 2 1 3 3 5 3 1 3 3 3 2 1 1 1 2 1 3 2 1 1 3 6 3 4 4 5 4 8 11 11 12 11 10 10 9 9 7 4 4 8 9 8 11 12 13 13 12 11 11 11 10 10 9 10 10 11 13 14 13 12 12 12 12 11 11 11 11 11
4 4 3 3 2 2 2 2 1 1 2 1 3 2 3 2 1 0 2 2 3 4 2 1 3 2 4 3 4 2 1 2 3 2 4 1 0 0 4 5 3 2 4 4 5 6 10 9 9 9 9 9 7 6 9 8 7 6 8 7 8 11 12 11 12 12 13 13 12 12 11 11 11 11 13 14 14 13 13 13 12 12 12 11 11
4 4 4 3 2 3 3 3 4 2 1 2 3 4 2 2 2 1 2 3 4 5 2 1 4 3 2 5 3 4 3 2 3 3 2 3 3 0 1 1 3 5 2 1 2 3 9 10 9 8 8 7 6 4 3 11 8 7 6 8 10 11 11 12 13 12 12 13 13 13 12 12 12 12 12 14 15 13 12 13 13 13 13 12 12
3 4 3 3 0 2 3 3 1 2 3 3 4 2 2 3 2 2 2 2 3 4 5 4 3 4 3 6 2 4 4 3 4 4 5 3 3 3 2 1 0 3 6 4 2 3 2 7 8 5 5 5 3 4 3 1 7 6 6 7 8 9 10 11 11 11 12 13 13 13 14 14 14 13 12 12 13 12 13 13 13 13 13 13 13
5 3 3 1 2 2 4 4 3 3 3 4 1 2 4 3 2 2 1 1 2 3 2 3 2 3 3 3 4 2 3 3 2 2 2 3 4 4 1 2 1 0 3 3 3 2 2 3 2 1 1 2 2 3 2 3 5 6 7 7 8 8 9 9 10 11 13 12 11 12 13 13 14 13 13 13 13 12 12 12 12 13 14 14 13
5 5 3 2 3 3 3 3 3 3 2 2 3 3 3 2 2 2 3 2 3 1 2 1 2 3 2 2 0 2 2 2 2 1 1 2 4 2 2 2 4 3 3 5 3 1 4 3 2 2 0 3 4 2 3 4 5 6 6 6 7 8 8 8 8 9 10 11 11 11 12 12 13 13 13 13 13 12 12 12 12 13 13 14 13
5 4 4 4 1 2 3 2 2 3 1 2 3 4 2 2 1 2 1 1 3 2 3 2 2 3 4 4 3 1 2 1 2 2 3 2 3 2 2 2 2 1 4 2 3 5 4 2 2 1 1 3 4 6 4 2 4 3 4 5 6 7 7 7 6 6 7 9 10 9 10 11 12 13 13 13 13 12 12 12 12 13 13 14 14
5 5 4 4 3 1 3 2 2 3 2 2 2 2 2 2 1 1 2 1 2 2 2 2 2 2 2 2 3 2 1 2 5 1 0 4 5 5 3 0 3 4 3 1 2 5 7 3 4 2 2 4 5 4 2 3 3 3 3 3 2 1 3 4 5 6 7 9 10 10 10 11 11 13 13 12 12 13 12 12 12 14 14 14 14
6 5 4 4 4 4 3 3 2 5 2 2 2 3 1 1 1 1 2 2 1 1 3 2 3 4 3 1 1 2 1 2 5 2 1 4 2 5 4 4 4 4 1 3 4 4 5 3 3 3 3 4 5 4 3 4 6 9 9 7 6 4 3 2 3 3 5 6 7 9 9 9 11 12 12 12 13 12 12 12 12 11 12 14 14
6 5 3 4 4 4 4 4 2 3 2 3 1 1 2 2 2 1 1 3 1 2 3 3 3 4 3 3 3 2 1 2 2 3 3 2 6 6 2 5 5 4 3 5 3 2 5 3 3 2 3 5 5 5 4 3 8 8 9 8 7 6 5 5 5 6 7 7 6 5 3 5 8 10 11 12 13 13 13 13 12 11 12 13 14
5 5 4 4 4 4 3 4 4 2 2 2 2 3 4 3 1 2 1 3 5 1 2 3 3 2 2 2 1 2 3 3 3 2 4 2 5 6 3 3 4 2 2 2 2 1 5 4 3 3 4 3 5 6 5 4 3 4 5 7 7 6 6 4 4 4 5 6 6 7 7 6 4 3 6 10 11 13 12 12 13 13 13 13 14
4 5 5 6 4 3 3 4 3 3 3 2 2 1 2 3 4 2 2 1 2 3 3 1 2 1 1 3 1 2 3 4 3 1 2 5 2 3 3 4 4 2 2 4 2 0 3 4 3 2 4 3 4 5 4 5 4 3 3 4 7 6 5 4 4 4 5 5 5 4 4 4 4 4 4 4 3 5 9 11 12 14 15 14 14
5 5 4 7 5 3 3 2 3 5 3 1 0 2 3 4 3 1 3 2 2 2 1 2 1 2 0 0 3 2 1 2 2 2 1 3 3 1 4 6 5 2 0 1 5 4 3 4 3 3 3 3 3 5 5 5 6 6 6 6 5 5 4 4 3 3 4 4 4 4 3 3 3 3 3 3 3 3 3 5 8 11 12 14 14
5 6 5 7 6 5 4 3 2 5 4 3 3 3 1 1 3 4 3 2 2 2 3 1 0 2 2 3 4 1 0 0 2 2 1 1 1 3 4 7 5 7 6 3 5 4 2 3 3 5 3 3 1 3 5 6 5 4 3 5 4 4 4 3 2 2 2 3 3 3 3 3 3 3 3 3 4 4 4 4 5 5 9 12 14
4 6 5 7 6 5 4 3 3 2 5 4 4 1 2 2 2 3 1 1 2 2 1 2 3 4 2 2 1 1 1 1 2 3 0 1 2 1 2 1 3 2 4 2 6 6 5 3 0 1 5 4 3 2 4 4 4 4 5 5 4 2 2 2 1 0 2 2 2 2 2 3 3 4 4 4 4 5 5 6 7 7 7 8 11
4 7 7 4 6 4 4 4 4 3 5 4 3 5 2 1 3 2 2 2 1 1 2 2 4 2 3 1 2 1 1 2 0 2 1 1 1 3 3 2 1 2 0 3 4 3 2 3 1 3 3 3 3 3 2 3 4 4 4 7 5 4 3 2 1 1 0 2 2 2 2 2 3 4 4 4 4 5 6 6 7 8 8 9 10
6 4 6 4 5 6 5 5 4 4 3 3 2 6 4 3 3 2 2 2 3 2 1 2 2 1 1 1 1 3 2 2 2 2 2 1 2 4 4 5 1 1 1 3 2 2 2 1 1 3 2 1 2 3 3 2 0 5 9 8 7 6 5 4 4 3 3 3 3 4 3 3 3 3 4 5 5 5 6 6 7 8 9 9 10
6 7 6 8 5 6 5 6 5 5 5 3 2 1 5 6 3 4 3 2 3 2 2 2 2 3 2 3 2 2 1 0 3 2 2 1 2 3 4 3 2 2 1 0 2 3 2 3 3 2 2 4 1 3 2 2 2 9 6 9 9 9 8 7 6 5 5 5 5 5 5 4 4 4 4 5 6 6 7 7 7 8 9 9 9
5 7 7 8 7 7 5 5 6 5 6 5 3 4 2 5 5 6 5 4 2 2 2 3 2 2 3 3 4 1 1 2 2 3 2 4 1 1 4 3 2 3 1 1 3 2 2 3 3 4 2 3 2 2 3 3 2 8 3 7 9 8 8 9 8 8 8 7 6 6 6 6 6 5 5 5 6 7 7 8 8 8 9 10 10
8 7 9 8 8 7 6 5 6 5 4 5 5 3 3 2 5 4 4 3 4 3 3 4 3 3 1 3 2 1 2 2 3 1 3 0 2 3 1 2 2 3 2 1 1 2 2 3 4 4 6 5 5 4 3 4 2 9 6 4 6 9 10 10 11 11 11 9 9 8 7 7 7 7 7 7 7 8 8 9 9 9 10 10 11
8 6 5 8 9 8 7 6 6 6 4 5 5 5 3 2 3 5 3 5 4 3 3 4 3 4 3 2 2 3 1 3 0 5 3 2 2 1 0 2 3 4 3 1 1 3 5 3 4 2 2 3 3 3 2 1 1 9 8 4 2 5 8 11 13 13 12 11 10 10 9 9 8 8 8 8 8 8 9 9 10 10 10 10 11
7 8 7 7 8 9 7 7 6 7 6 5 5 5 5 5 3 3 5 3 5 5 4 4 5 3 4 3 2 3 2 3 5 1 1 1 1 1 0 1 2 4 3 3 2 3 6 4 2 1 2 2 2 2 3 2 2 5 5 3 4 6 10 11 12 13 13 12 11 10 9 9 9 9 9 9 9 10 10 10 10 11 11 11 11
8 8 8 7 8 9 9 8 8 7 7 6 5 5 5 5 5 4 5 4 4 6 5 4 4 4 4 4 4 4 3 1 2 1 2 2 1 2 3 3 2 3 3 3 3 3 2 3 1 2 3 3 2 2 2 2 3 5 3 3 3 2 5 4 9 10 8 9 9 10 10 9 10 10 11 11 10 10 10 10 10 11 12 12 12
9 8 9 9 8 10 9 8 8 8 9 8 7 6 6 6 6 5 5 4 3 5 4 4 4 3 2 3 4 4 4 3 3 2 2 3 3 4 3 3 3 4 3 4 4 2 3 3 4 0 2 2 2 3 3 3 5 6 4 4 4 4 2 5 7 10 12 13 13 14 13 12 12 11 11 11 11 10 10 11 11 11 12 12 13
8 8 9 9 8 8 8 9 8 9 9 9 9 8 7 6 7 6 5 5 4 5 5 4 3 3 4 4 3 3 2 3 3 5 4 5 5 4 4 3 3 4 4 3 5 2 3 3 2 2 2 2 2 2 2 2 2 3 3 3 3 4 7 5 8 11 13 15 15 15 14 14 14 13 13 12 12 10 10 11 11 11 11 12 13
9 10 10 10 9 10 9 9 9 9 9 8 9 7 6 5 5 7 7 6 5 4 4 5 5 5 5 4 3 3 2 3 3 3 3 3 3 4 4 4 3 3 3 4 5 6 3 4 4 3 3 4 3 4 3 3 4 6 3 4 3 5 6 6 11 15 16 15 15 15 16 16 14 13 12 12 12 11 12 12 13 12 11 11 12
10 11 12 12 11 11 11 10 10 10 9 8 8 7 7 7 5 6 5 8 7 5 4 4 5 5 4 3 3 3 4 5 4 4 4 3 4 4 4 4 5 4 5 5 6 6 4 4 4 3 3 3 4 2 3 2 3 4 6 4 4 5 6 6 6 8 11 16 17 15 15 14 13 13 14 14 15 13 14 13 14 13 13 13 13
11 12 13 11 11 11 11 10 9 9 9 9 9 8 8 8 8 6 5 6 8 7 5 5 5 3 3 4 4 4 3 4 3 3 4 4 4 4 4 5 5 5 5 5 5 4 5 3 4 3 3 2 4 2 4 4 4 5 5 3 3 3 5 5 6 6 10 6 11 13 13 14 14 15 16 16 16 16 16 15 15 15 14 14 14
11 11 12 12 12 12 11 10 9 9 10 10 9 9 10 10 10 7 7 6 7 7 7 6 6 4 4 4 4 4 4 4 3 3 3 4 4 4 4 3 4 4 3 4 4 5 5 5 2 3 2 2 2 2 3 3 4 4 4 4 4 5 5 5 4 4 8 10 8 10 11 12 13 14 15 16 17 17 16 16 16 16 15 15 14
12 11 12 12 12 12 11 10 9 9 12 11 10 10 11 11 9 8 7 7 6 7 7 7 6 5 5 4 5 6 5 5 4 4 4 4 4 4 4 4 4 4 3 3 3 3 4 6 3 3 2 4 4 3 3 3 5 5 5 4 4 4 4 4 4 5 9 15 14 12 12 13 14 14 15 16 16 16 16 16 16 16 16 16 16
13 12 11 11 11 12 12 12 13 11 12 12 11 11 10 10 10 9 8 8 7 7 7 6 6 6 6 7 7 6 5 5 5 5 5 5 5 4 4 4 5 4 4 4 4 4 4 6 5 3 3 4 4 4 4 5 4 4 5 6 6 6 5 5 5 5 10 12 12 14 14 14 14 15 16 16 16 16 17 17 17 17 17 17 17
14 14 14 12 12 13 13 13 13 12 11 11 12 11 11 11 10 10 9 8 8 7 7 7 6 6 5 5 5 5 5 6 6 5 5 6 5 5 5 5 4 4 5 5 4 4 4 5 5 6 4 5 4 4 4 5 5 5 4 4 3 3 3 3 4 5 5 5 5 5 7 9 11 14 15 15 16 17 17 18 18 18 18 18 18
15 15 15 14 13 13 13 11 12 12 12 12 12 11 10 11 10 10 10 9 7 7 6 7 7 7 7 6 6 7 7 7 6 6 5 5 5 5 5 5 5 5 5 5 5 5 5 5 5 6 6 5 5 6 4 4 4 5 5 4 6 5 5 6 7 6 5 7 8 11 10 10 12 11 11 14 16 18 18 18 18 18 18 19 19
16 15 15 15 13 13 13 12 12 12 12 11 11 11 11 10 10 10 9 9 9 8 8 8 8 8 8 8 8 8 8 7 7 6 7 6 4 5 5 5 5 6 5 5 5 5 5 5 6 5 4 5 4 4 5 5 5 4 5 5 7 6 7 6 6 5 4 6 7 7 8 10 10 12 15 16 18 18 18 17 19 19 20 20 20
13 16 15 15 14 14 14 13 13 12 12 12 11 12 12 11 11 12 12 11 10 9 9 9 8 8 7 7 7 7 7 9 13 12 10 8 6 6 5 5 5 6 5 5 5 5 5 5 5 4 5 6 6 5 6 6 6 7 4 4 5 5 5 5 5 6 6 5 4 5 7 7 8 8 7 7 8 11 12 16 14 19 19 19 21
12 12 13 14 14 15 15 14 13 12 11 10 13 17 14 11 12 10 10 9 8 7 7 6 6 6 7 7 7 11 13 13 10 12 13 13 12 8 6 4 5 4 5 5 6 6 5 6 6 5 6 7 6 6 5 5 4 3 4 4 5 4 4 5 5 4 5 6 6 7 6 4 6 7 6 7 6 8 8 8 7 10 14 18 21
13 12 13 15 14 14 15 15 15 12 11 11 18 18 19 17 11 9 9 9 8 8 8 6 6 6 5 6 6 7 8 7 7 11 12 13 12 12 12 11 8 6 5 6 6 5 6 7 6 6 7 8 8 7 7 5 3 4 3 3 5 4 4 6 8 4 3 6 5 6 5 3 5 8 8 8 8 9 10 10 14 16 16 15 16
12 11 13 14 13 13 13 14 14 13 11 14 18 18 17 17 15 10 9 8 8 7 7 6 5 5 5 6 5 4 4 4 4 6 10 13 14 14 13 12 12 12 11 10 9 7 7 7 7 7 7 8 7 5 6 5 3 2 3 3 3 5 6 7 7 8 1 2 6 8 9 4 6 9 10 9 9 9 10 12 15 15 16 17 17
9 9 10 12 13 12 12 13 14 13 11 14 18 18 15 16 16 13 9 8 7 8 7 7 5 5 5 5 5 5 4 5 3 3 3 6 10 13 13 13 12 11 12 12 10 9 7 8 9 9 8 7 8 6 3 2 0 3 3 5 5 5 6 8 7 6 4 2 5 8 11 7 7 10 9 8 8 8 9 12 15 16 17 18 19
7 7 9 11 11 11 11 11 11 10 10 14 19 17 17 17 15 8 5 5 6 5 4 4 5 5 5 5 5 5 4 4 4 4 4 4 4 6 7 5 5 8 8 11 13 15 11 8 9 11 8 6 7 4 2 1 3 5 4 5 5 7 8 8 6 6 6 5 9 9 12 9 7 8 9 8 8 9 9 13 17 18 19 20 19
10 9 9 10 10 10 11 10 10 11 8 17 19 20 19 16 14 9 5 5 3 2 4 5 3 2 2 4 3 4 3 3 3 4 4 4 4 5 4 3 3 1 2 7 7 6 6 7 8 12 11 9 9 9 6 2 4 5 4 5 4 5 8 8 8 9 10 8 9 9 12 9 5 8 8 8 8 9 7 10 14 16 15 15 15
9 9 8 8 9 10 10 11 10 11 8 18 20 19 17 14 13 8 8 6 4 6 6 2 2 5 4 6 6 4 5 5 6 7 3 1 1 2 3 2 4 5 7 9 9 8 8 6 4 4 6 7 9 9 6 7 5 3 5 5 5 6 7 8 9 7 8 5 6 8 10 10 6 10 9 7 8 9 7 6 8 11 11 13 15
8 9 9 9 8 9 10 9 9 8 8 15 17 15 14 18 15 8 7 7 6 5 3 6 4 3 4 2 9 9 9 8 4 7 6 3 2 4 5 6 6 6 7 7 11 15 15 13 12 12 13 13 12 10 7 6 7 4 1 4 6 6 7 9 8 7 7 5 5 7 9 11 7 8 10 7 6 5 5 6 5 9 12 14 15
9 10 9 8 8 9 9 10 10 9 8 13 20 19 22 18 14 10 8 7 5 3 3 4 2 1 7 7 1 4 9 12 7 8 6 4 3 4 5 5 5 6 5 4 1 3 7 10 12 14 14 14 14 12 12 12 10 5 4 8 8 6 7 6 8 8 7 5 7 9 9 10 9 4 5 4 5 4 5 5 6 8 12 13 16
7 7 8 8 7 7 7 8 10 10 10 12 20 18 15 17 13 7 7 6 7 6 4 4 3 4 3 4 6 11 13 14 9 8 8 6 4 4 4 4 5 5 4 2 1 3 4 5 6 7 7 10 8 6 8 13 14 9 8 9 7 7 8 8 9 8 8 7 7 8 7 4 6 5 6 7 8 6 5 6 6 7 9 10 11
Wind_Direction
182 191 190 176 185 142 256 181 327 206 247 254 178 41 302 282 331 325 277 327 21 202 264 210 252 216 185 201 168 176 212 317 232 86 104 117 161 180 184 184 185 189 193 196 200 202 208 217 223 219 219 218 215 215 215 216 216 209 205 207 209 212 214 214 217 220 223 219 221 220 222 223 222 223 225 227 230 235 238 232 221 225 226 226 222
176 207 151 164 109 148 179 182 192 184 236 231 135 148 245 251 68 294 294 342 341 285 271 286 294 309 208 144 158 103 341 248 142 168 81 107 209 170 187 185 187 191 192 199 205 203 204 209 218 226 227 224 219 220 219 218 218 220 214 210 212 208 212 223 228 222 222 227 222 224 228 230 229 228 226 229 233 236 241 242 241 238 237 233 236
51 170 126 163 165 169 107 53 281 8 339 270 169 88 15 269 239 242 349 340 299 260 267 286 282 260 62 29 111 143 84 325 284 92 139 143 164 176 190 189 189 193 193 198 203 210 211 211 217 221 224 230 231 226 224 222 222 225 241 281 37 1 328 300 260 227 225 223 224 221 225 226 230 230 227 228 230 233 238 241 243 242 242 243 242
154 250 181 184 192 148 169 180 184 323 278 338 12 156 241 260 295 51 69 8 271 274 267 259 259 285 35 237 154 151 154 145 279 282 120 150 154 177 169 194 195 193 197 201 203 206 210 215 215 224 227 230 233 237 236 238 241 261 265 342 160 196 202 210 230 246 233 229 224 225 224 224 225 227 228 227 227 229 231 236 239 241 242 242 242
165 242 246 225 203 172 159 165 149 197 205 231 244 304 330 327 191 96 244 250 266 264 253 274 315 13 355 355 6 343 138 150 196 222 104 134 85 305 178 185 189 194 199 203 206 206 206 212 214 220 226 230 235 236 239 294 320 7 279 219 207 219 213 215 226 218 227 249 261 239 229 229 227 225 226 227 228 227 229 227 231 237 240 243 244
151 221 243 234 223 207 137 149 161 251 254 348 322 244 143 231 74 233 236 248 250 248 312 309 11 20 337 323 319 314 326 264 152 114 98 137 174 170 170 182 168 176 196 207 212 211 210 213 220 219 223 229 236 236 184 148 285 238 216 232 222 224 229 222 222 231 233 224 230 240 245 236 233 233 233 233 233 234 235 233 231 230 234 240 244
177 206 214 235 250 122 141 165 167 148 57 236 263 305 227 200 115 337 292 274 353 348 296 332 2 265 229 169 208 312 324 283 266 125 157 125 201 167 169 179 157 178 173 177 210 215 215 217 219 221 226 233 238 233 113 71 226 232 230 229 229 237 236 234 233 231 239 240 239 244 250 251 252 240 238 240 241 242 243 244 242 240 235 234 239
214 203 217 227 230 135 141 139 74 247 134 255 259 227 184 171 108 268 21 7 328 285 312 319 244 305 31 349 282 213 101 343 317 250 96 144 118 236 139 162 159 176 150 188 172 203 212 217 219 222 227 230 232 237 134 184 232 250 247 237 223 235 237 234 232 235 237 241 240 241 243 246 252 258 249 243 242 240 242 245 247 248 246 241 238
208 207 215 240 208 150 151 172 190 149 240 211 242 231 39 58 100 67 17 19 304 285 254 275 37 2 321 298 45 15 17 1 321 349 108 185 153 44 215 125 141 163 161 151 173 164 195 206 215 225 235 236 247 279 244 164 205 215 229 238 241 238 237 232 235 240 243 240 243 246 246 244 248 252 255 251 245 242 240 243 245 246 247 248 246
226 200 226 239 129 240 141 139 173 134 215 238 243 94 85 49 19 43 23 309 295 320 11 9 353 5 334 288 48 32 19 344 1 9 5 343 78 67 357 52 339 133 151 172 154 94 141 193 213 229 262 279 294 278 306 221 182 202 215 233 247 249 247 248 246 242 248 247 243 242 244 246 247 252 255 254 256 257 252 246 245 245 246 245 246
218 225 203 79 254 67 105 167 173 177 226 253 254 80 63 77 15 350 287 303 22 327 331 360 320 273 289 1 22 45 26 349 4 348 355 337 16 22 326 52 32 27 28 84 118 149 132 100 118 149 174 177 231 178 260 142 218 218 227 228 240 255 261 253 242 234 241 245 244 242 244 244 245 245 251 254 254 255 256 254 249 246 248 249 247
195 213 122 192 206 180 129 185 168 200 103 317 41 60 50 32 5 9 355 353 284 165 266 285 316 314 301 278 241 57 77 4 287 293 231 233 89 80 338 118 61 324 81 113 138 146 93 74 91 107 235 151 176 98 101 172 207 212 214 229 240 245 255 262 257 252 249 250 249 244 241 244 250 249 247 248 252 255 254 254 255 253 248 250 248
189 192 202 178 142 166 133 240 188 103 99 36 63 37 37 38 284 224 273 307 283 210 56 345 303 323 265 225 124 129 108 220 311 255 211 111 93 133 225 121 145 118 100 41 136 130 103 130 107 111 134 77 83 112 99 165 206 228 230 227 237 253 266 264 262 259 259 261 259 253 246 244 245 249 250 249 249 251 254 253 251 250 250 252 250
204 191 193 157 146 106 122 187 14 100 69 80 69 81 52 251 358 283 189 263 293 9 44 353 285 267 330 31 110 114 316 228 234 220 199 118 163 167 182 102 52 64 41 123 93 103 138 158 161 150 116 109 99 124 120 83 66 96 115 97 132 274 274 292 282 266 254 253 258 258 247 241 243 244 244 246 248 250 253 257 258 256 254 252 252
178 191 161 160 156 138 174 136 215 115 169 185 128 122 205 287 256 45 3 237 212 42 80 25 341 351 320 105 297 104 296 275 283 150 11 91 57 51 11 68 39 55 8 52 58 62 57 61 61 121 145 123 122 141 135 143 118 101 90 83 72 69 72 29 359 328 317 297 286 278 269 260 253 254 253 249 245 244 249 255 256 257 257 254 251
182 171 166 145 154 159 181 150 115 115 71 85 147 233 97 118 245 169 163 298 253 178 107 71 48 354 24 338 304 179 99 299 288 342 356 188 89 80 49 64 64 18 14 40 53 58 82 67 76 63 82 115 136 116 124 114 105 93 89 88 77 61 45 36 31 33 36 41 41 23 330 281 263 254 255 256 253 250 250 252 252 251 249 249 246
171 155 173 150 154 179 145 135 142 138 108 76 65 256 162 204 128 46 340 314 339 64 80 78 79 39 27 323 356 43 8 356 34 318 334 323 87 102 110 90 79 51 73 81 18 356 101 81 64 49 49 83 125 132 131 134 114 106 90 82 84 75 53 36 26 29 28 33 36 39 42 41 32 325 270 259 263 265 262 254 253 253 249 244 244
166 162 174 138 158 179 152 131 152 147 118 154 184 332 23 290 135 209 188 13 5 330 105 53 86 21 194 151 154 99 351 325 311 329 315 358 69 74 89 99 128 153 201 155 147 151 120 116 110 79 106 85 92 104 106 109 102 99 108 87 82 76 72 60 37 29 35 31 30 27 23 21 21 14 17 8 324 276 261 256 248 249 251 250 250
171 165 168 134 167 166 157 145 142 118 121 115 96 195 193 245 133 102 70 61 309 321 10 154 63 232 86 274 108 54 98 336 14 314 10 325 360 131 204 138 140 156 143 112 123 70 34 117 103 110 92 104 111 123 128 118 117 118 112 105 94 84 75 74 60 41 40 35 30 24 11 2 355 348 348 330 327 337 332 294 262 251 250 252 252
165 159 155 155 172 157 152 156 144 133 134 170 217 212 205 138 45 79 70 42 349 2 349 317 158 162 98 5 40 68 221 88 67 7 171 292 302 288 218 133 143 177 154 125 89 99 98 339 130 150 141 109 102 128 124 140 151 133 117 130 119 108 87 73 58 36 32 37 33 23 3 346 341 337 331 320 313 305 291 284 293 283 262 254 252
171 141 157 179 150 159 140 135 138 144 141 186 224 139 70 87 83 94 103 74 342 354 342 0 2 54 355 48 104 329 221 179 221 195 152 24 310 216 294 91 172 101 57 125 140 153 173 146 226 269 142 160 152 149 135 139 125 127 147 147 154 129 117 113 86 50 26 8 13 18 5 345 336 336 332 320 315 307 299 292 285 281 276 272 267
159 170 173 162 146 132 137 153 148 186 143 227 195 129 135 208 147 175 168 159 48 349 283 20 49 11 48 4 324 202 314 233 101 273 171 95 232 305 276 182 91 59 17 28 54 32 8 126 143 273 132 156 142 126 131 120 155 142 147 164 171 182 198 230 235 276 109 316 321 334 342 337 333 328 323 319 314 310 306 306 303 296 289 283 280
174 169 141 156 150 146 163 160 167 170 161 209 245 141 157 190 178 177 147 166 145 240 265 44 104 70 208 85 326 309 347 8 8 55 14 357 336 309 343 21 337 65 39 95 67 41 324 305 150 238 164 98 154 154 115 80 221 152 163 180 185 196 202 219 244 260 262 265 285 297 309 314 319 317 316 316 314 311 309 307 304 303 300 298 292
188 152 162 167 162 152 170 156 172 164 178 190 223 174 178 170 174 135 127 210 176 211 176 215 184 208 224 163 202 261 264 281 0 13 120 68 42 322 313 300 72 101 106 277 159 190 198 246 260 260 158 168 142 114 126 124 174 163 177 190 195 201 202 217 226 238 247 254 259 275 286 296 302 303 307 310 308 307 307 305 304 303 303 302 301
178 153 180 173 150 154 177 163 162 187 170 176 200 197 264 147 176 144 164 180 188 164 188 273 220 236 207 235 183 217 229 136 57 334 12 83 56 298 283 355 338 325 242 141 214 227 226 220 222 207 216 141 141 172 169 167 170 182 247 179 206 203 211 212 218 229 234 235 245 259 271 282 289 291 289 292 296 300 302 302 301 302 301 302 302
177 172 181 168 151 158 171 175 160 182 176 166 182 196 179 200 149 147 175 167 160 190 194 236 209 244 337 342 311 179 280 131 144 114 290 273 166 230 314 345 310 290 273 200 261 276 276 259 244 213 190 171 181 159 172 174 161 166 190 198 200 211 217 218 217 220 224 225 225 238 257 267 275 281 284 282 284 290 294 297 300 302 302 301 302
176 179 178 151 156 160 168 184 173 172 191 171 174 176 164 204 159 157 188 155 170 174 203 252 231 209 223 212 290 313 60 12 8 168 190 252 298 6 42 307 305 295 296 172 214 225 259 251 234 243 192 173 147 142 128 120 230 166 201 202 239 274 256 226 223 220 222 221 221 228 238 249 257 264 272 277 279 282 286 290 294 297 299 300 299
177 166 174 156 157 158 171 184 178 179 177 181 178 175 173 180 181 175 181 177 177 175 189 224 243 226 208 203 193 249 236 181 214 138 131 135 215 71 87 210 281 294 299 293 240 258 232 244 295 352 39 104 143 156 182 221 225 272 238 235 238 243 253 247 222 220 221 226 229 230 234 244 248 251 257 263 270 273 277 283 288 292 293 294 295
171 161 165 162 157 162 174 183 183 178 175 180 181 182 178 177 188 186 192 208 170 172 180 212 230 232 199 205 195 201 240 292 15 267 195 205 206 198 204 230 219 253 283 279 279 279 283 311 297 248 230 145 185 179 209 200 227 237 248 255 267 268 296 250 227 228 236 244 248 246 246 238 242 245 253 256 259 263 270 276 280 284 287 288 287
168 167 164 165 165 172 172 185 182 181 179 178 184 190 178 181 193 194 193 204 186 163 182 199 210 236 225 214 184 193 200 206 198 209 207 207 213 210 217 211 200 225 250 279 281 291 300 309 299 176 216 251 194 201 189 218 238 249 243 243 239 253 183 183 205 215 222 230 233 235 238 242 247 248 249 251 253 252 258 266 271 273 279 284 287
169 164 162 167 170 176 177 186 182 183 180 181 184 187 183 181 191 193 196 190 197 169 173 188 224 221 213 219 201 206 210 213 211 197 203 195 199 208 220 211 211 209 235 249 276 255 259 282 281 301 271 221 244 241 207 198 241 252 256 253 251 257 272 256 230 222 226 230 233 236 239 244 246 245 245 243 249 245 249 254 259 265 270 275 281
174 162 164 171 173 181 184 189 188 186 183 186 184 183 180 182 193 199 194 182 186 189 182 184 209 213 205 205 208 207 201 211 224 225 222 213 207 195 199 218 233 226 214 231 247 268 270 291 291 280 265 264 232 229 222 212 216 228 239 243 251 271 262 247 251 244 238 237 238 239 242 244 246 247 246 246 245 242 247 248 254 260 264 267 273
172 168 172 176 179 182 187 189 191 186 182 185 181 178 179 183 200 208 198 183 182 184 195 210 211 214 192 191 202 201 198 210 208 212 221 220 207 207 201 198 208 210 211 220 237 258 248 230 254 265 282 299 290 268 266 239 223 224 224 219 227 244 253 250 249 248 237 234 237 241 248 250 245 241 239 238 240 239 241 242 252 257 263 267 269
174 174 176 178 178 180 188 189 191 181 178 183 180 175 179 182 204 201 212 189 181 179 183 207 226 220 191 198 215 222 216 221 215 218 218 233 222 219 212 205 213 221 209 225 232 244 263 243 258 247 255 232 276 230 237 235 243 230 219 213 222 246 262 269 262 252 258 234 217 233 237 237 235 235 236 238 241 244 246 247 251 253 257 261 264
176 177 177 179 177 180 185 185 185 180 177 184 184 176 179 186 195 197 204 210 182 179 184 198 207 201 211 212 216 219 219 227 224 226 233 236 232 231 238 224 225 224 225 221 228 249 264 264 255 279 266 252 253 284 289 291 277 269 248 223 228 236 241 243 251 272 279 270 251 228 231 237 237 235 234 237 241 244 245 247 249 251 253 254 255
177 178 179 183 178 176 181 181 187 182 180 183 186 183 183 186 187 194 198 202 196 186 183 195 205 207 213 213 220 224 216 218 219 222 225 233 230 217 223 238 245 242 234 240 233 249 266 282 259 254 262 266 253 251 254 254 276 276 262 248 233 245 257 271 277 273 267 263 254 249 244 237 238 240 238 237 238 241 245 248 250 250 251 252 253
180 178 178 182 177 175 183 181 182 187 184 183 186 188 183 182 185 191 197 196 196 190 194 199 205 205 205 211 217 220 219 224 227 229 225 233 230 224 224 219 224 231 235 235 243 232 245 258 273 253 256 259 249 246 238 244 243 261 269 250 244 245 250 250 263 271 292 288 263 256 258 257 249 241 240 240 241 242 245 248 250 250 249 248 250
182 180 178 181 179 181 186 185 182 180 181 185 189 192 185 179 185 191 196 197 194 192 194 199 210 212 214 213 218 229 230 223 223 224 226 229 226 224 228 230 222 221 226 230 232 240 237 249 264 282 262 261 266 246 233 225 233 245 261 275 287 282 275 276 263 268 261 265 287 279 260 258 260 255 251 247 247 249 250 250 251 250 248 247 247
187 185 183 181 179 183 185 183 179 182 186 188 188 191 189 183 187 190 195 196 194 196 201 205 214 217 217 216 221 222 226 227 228 229 234 237 234 235 225 225 226 227 236 235 233 235 236 245 250 253 267 258 253 269 246 236 233 222 241 258 270 253 250 246 258 250 245 254 256 265 274 280 281 277 253 241 241 244 247 250 251 252 251 249 246
188 189 188 182 178 182 183 183 184 185 189 189 186 191 191 185 184 189 192 193 196 201 205 208 212 218 214 217 222 220 219 218 219 219 222 233 227 234 225 220 222 228 232 235 234 235 237 241 240 255 258 275 275 271 273 260 257 253 232 234 247 255 250 236 232 241 250 256 265 264 264 264 259 255 258 261 260 257 253 251 251 250 249 248 247
194 195 193 185 177 181 181 185 184 184 190 192 187 187 188 187 186 189 192 190 194 196 204 210 212 219 224 227 230 228 222 218 212 212 213 211 218 227 223 217 227 225 226 227 233 238 247 253 263 263 269 269 264 270 271 259 248 250 237 225 245 242 247 257 252 240 245 252 254 264 265 260 261 260 263 260 248 247 250 245 246 246 246 245 247
191 188 180 184 181 181 182 186 188 188 190 190 189 186 189 187 188 189 186 190 193 198 202 211 219 218 228 234 236 229 228 229 221 214 212 216 222 226 225 217 224 224 221 227 233 234 236 247 252 250 254 256 256 247 252 252 251 258 267 257 263 263 267 267 264 253 257 261 266 260 255 249 262 267 260 263 260 257 265 261 254 243 243 242 245
189 178 175 184 186 184 184 186 188 190 191 191 183 183 189 190 187 187 184 186 192 197 202 203 212 219 230 231 234 236 232 223 214 212 215 220 224 231 240 241 233 227 234 238 239 233 237 241 240 236 241 248 250 254 253 265 257 257 257 275 278 287 285 289 286 279 237 255 261 272 267 251 269 272 266 262 267 268 266 262 264 264 258 252 248
191 180 178 182 184 185 187 188 189 192 190 186 177 179 182 185 189 187 187 190 193 195 195 206 213 223 229 238 245 246 243 237 230 215 217 215 218 225 232 237 242 243 237 238 246 250 246 247 248 249 254 253 253 247 254 251 256 290 283 284 283 289 284 276 274 273 253 290 284 280 274 262 270 268 272 269 267 267 264 260 258 255 255 257 259
183 183 182 178 186 188 187 187 191 189 193 173 174 170 178 186 188 188 187 185 187 193 196 203 204 213 218 220 237 243 245 242 244 242 208 215 227 230 231 236 245 245 249 251 249 251 256 253 253 254 250 258 257 249 249 263 332 276 277 274 275 272 273 274 270 279 277 285 296 281 276 270 264 269 271 271 268 266 266 263 257 253 254 256 256
176 180 189 186 187 189 187 187 190 185 195 168 165 166 186 189 190 192 189 179 194 194 200 210 210 214 210 220 220 232 230 236 236 235 243 239 212 216 231 227 232 248 246 250 251 245 243 253 259 259 258 278 273 270 257 262 268 265 268 269 271 272 264 264 280 283 280 281 271 280 277 272 260 265 265 269 267 265 260 256 255 256 257 259 259
179 189 189 195 190 189 185 184 190 188 182 165 153 174 186 185 185 197 202 196 207 230 248 228 233 296 269 251 245 248 244 247 231 241 250 246 240 224 203 197 222 243 264 262 243 222 214 223 248 267 273 275 287 293 281 256 261 263 258 264 263 268 274 280 279 271 273 260 256 256 269 271 252 259 257 259 255 255 251 251 247 249 252 255 257
181 180 187 199 193 192 188 186 191 183 157 156 155 174 176 171 179 198 207 195 194 206 216 114 196 231 239 246 247 248 260 245 245 242 214 133 293 237 185 229 254 246 248 244 244 242 242 246 222 231 240 257 271 251 247 258 252 270 272 267 267 264 270 269 265 268 266 262 244 253 269 275 264 265 265 255 262 267 265 266 279 286 288 286 280
178 179 184 192 189 193 190 179 173 175 140 160 146 164 163 181 188 191 191 192 198 209 188 171 201 240 246 8 15 342 315 291 235 186 193 163 228 228 225 229 230 234 246 250 240 244 242 238 248 252 258 274 279 277 266 241 236 233 283 293 269 270 268 271 268 267 266 266 264 273 280 285 282 276 275 268 263 274 283 284 286 289 289 284 279
184 187 183 188 189 187 186 178 176 168 144 156 158 176 186 180 175 188 184 186 163 201 195 174 161 72 46 45 306 276 267 266 201 191 194 166 197 231 252 256 266 262 262 267 243 196 230 233 248 255 253 259 266 256 251 248 228 179 196 239 251 256 261 270 283 277 282 290 282 274 271 266 278 279 299 310 303 282 295 303 305 301 298 294 289
190 182 184 185 173 173 177 175 165 153 143 167 175 175 176 183 187 180 171 158 151 190 161 106 153 177 173 170 225 247 254 261 200 182 178 176 199 224 243 253 258 264 274 311 23 173 201 218 232 231 236 234 235 239 245 245 250 230 214 237 250 255 258 258 268 283 287 271 263 259 269 306 325 315 324 315 298 288 284 292 295 294 291 285 281